Location: Aranbee
(34.0885°N, 118.2342°W)
Time: 02:40:53
(UTC+00:00)

deb Explorer IX - Pass Details

Date: 30 November 2020
Orbit: 536 x 1104 km, 38.8° (Epoch: 25 January)

Event Time Altitude Azimuth Distance (km) Brightness Sun altitude
Rises 02:44:48 0° 283° (WNW) 3,383 ? -24.6°
Reaches altitude 10° 02:47:35 10° 288° (WNW) 2,347 ? -25.2°
Enters shadow 02:52:27 49° 346° (NNW) 901 ? -26.2°
